[[{"header":{"parameterUnit":"m.s-1","parameterCategory":1,"la1":30.2991,"la2":30.254,"lo1":-89.0895,"lo2":-89.0444,"dy":0.0017,"dx":0.0017,"nx":28,"ny":28,"refTime":"2024-11-29T03:00:00:Z","depth":0,"parameterNumber":2,"parameterNumberName":"U-component_of_WINDS"},"data":[0,0,0,0,0,0,0,0,0,0,0,0,0,0,0,0,0,0,0,0,0,0,0,0,0,0,0,0,0,0,0,0,0,0,0,0,0,0,0,0,0,0,0,0,0,0,0,0,0,0,0,0,0,0,0,0,0,0,-2.5601,-2.5601,0,-2.5607,-2.5607,-2.5607,-2.5521,-2.5518,-2.5516,-2.5514,-2.5522,-2.5524,-2.5526,0,0,0,0,0,0,0,0,0,0,0,0,0,-2.5515,-2.5517,-2.5601,-2.5601,-2.5601,-2.5607,-2.5607,-2.5607,-2.5521,-2.5518,-2.5515,-2.5513,-2.5521,-2.5524,-2.5526,0,0,0,0,0,0,0,0,0,0,0,0,0,-2.554,-2.5518,-2.5601,-2.5559,-2.5555,-2.5607,-2.5607,-2.5607,-2.5522,-2.5518,-2.5515,-2.5511,-2.552,-2.5523,-2.5527,-2.562,0,0,-2.5538,-2.5539,0,0,0,0,0,0,0,0,-2.5539,-2.5543,-2.5565,-2.5562,-2.5558,-2.5559,-2.5579,-2.5611,-2.5523,-2.5534,-2.5514,-2.551,-2.5537,-2.5539,-2.5548,-2.562,-2.562,-2.5538,-2.554,-2.5542,-2.5543,0,0,0,0,0,0,0,-2.5537,-2.5542,-2.5603,-2.5565,-2.5561,-2.554,-2.5539,-2.5585,-2.5556,-2.5533,-2.5527,-2.5529,-2.5534,-2.5545,-2.5548,-2.5621,-2.5538,-2.5541,-2.5544,-2.5545,-2.5768,-2.5771,0,0,0,0,0,0,-2.5541,-2.5541,-2.5603,-2.5603,-2.5539,-2.5544,-2.5544,-2.5562,-2.5555,-2.555,-2.5532,-2.5525,-2.554,-2.5543,-2.5548,-2.5655,-2.5542,-2.5545,-2.5547,-2.5764,-2.5768,-2.5772,0,0,0,0,0,0,-2.5539,-2.5547,-2.5603,-2.5571,-2.5576,-2.5549,-2.5571,-2.5564,-2.5575,-2.5554,-2.5548,-2.5548,-2.5538,-2.5542,-2.5602,-2.5654,-2.5547,-2.555,-2.5759,-2.5765,-2.577,-2.5871,0,0,0,0,0,0,-2.5537,-2.5547,-2.5582,-2.5572,-2.5578,-2.5658,-2.5574,-2.5567,-2.5581,-2.5572,-2.5567,-2.5563,-2.5535,-2.5597,-2.5606,-2.5657,-2.5553,-2.5755,-2.5762,-2.5769,-2.5863,-2.588,-2.5894,0,0,0,0,0,-2.5534,-2.5611,-2.5585,-2.5592,-2.5622,-2.5661,-2.5664,-2.563,-2.5585,-2.562,-2.5607,-2.5563,-2.5647,-2.5604,-2.5613,-2.5666,-2.5751,-2.576,-2.5768,-2.5857,-2.5877,-2.5894,0,0,0,0,0,0,-2.5629,-2.5609,-2.5579,-2.5655,-2.566,-2.5646,-2.5689,-2.5653,-2.5671,-2.5662,-2.5619,-2.5619,-2.5686,-2.5681,-2.5634,-2.5755,-2.5691,-2.5702,-2.5755,-2.5774,-2.5789,-2.5789,-2.5556,0,0,0,0,0,-2.5659,-2.5692,-2.5673,-2.5741,-2.5745,-2.5717,-2.5733,-2.5706,-2.571,-2.5712,-2.5702,-2.5708,-2.5735,-2.5754,-2.5778,-2.5862,-2.5859,-2.5903,-2.5918,-2.5931,-2.5941,-2.5984,-2.6003,-2.58,-2.58,-2.58,0,0,-2.5721,-2.5714,-2.5738,-2.576,-2.5761,-2.5796,-2.572,-2.576,-2.5786,-2.5718,-2.5773,-2.5767,-2.577,-2.5842,-2.5873,-2.5841,-2.5996,-2.5941,-2.5952,-2.5955,-2.5994,-2.6014,-2.6031,-2.5806,-2.5805,-2.5804,0,0,-2.5851,-2.585,-2.5906,-2.5908,-2.5909,-2.589,-2.5903,-2.5894,-2.5887,-2.5942,-2.5891,-2.5921,-2.5969,-2.5973,-2.5982,-2.6112,-2.6072,-2.6121,-2.6201,-2.6243,-2.6259,-2.6273,-2.632,-2.6337,-2.613,-2.6131,-2.6131,0,-2.5928,-2.5979,-2.594,-2.5984,-2.5995,-2.5933,-2.599,-2.5994,-2.6004,-2.6013,-2.5976,-2.6034,-2.6032,-2.6104,-2.6135,-2.6144,-2.6158,-2.6122,-2.626,-2.6274,-2.6286,-2.633,-2.6347,-2.6137,-2.6136,-2.6135,-2.6135,0,-2.6073,-2.6109,-2.6155,-2.6165,-2.6181,-2.6231,-2.6199,-2.622,-2.6191,-2.6175,-2.6231,-2.6226,-2.6248,-2.6263,-2.6236,-2.633,-2.631,-2.6267,-2.6203,-2.6312,-2.6352,-2.6369,-2.6145,-2.6143,-2.6141,-2.614,0,0,-2.6266,-2.6252,-2.6269,-2.6272,-2.6268,-2.6296,-2.6342,-2.6362,-2.6381,-2.639,-2.6428,-2.6469,-2.6429,-2.6439,-2.6411,-2.6448,-2.6551,-2.6401,-2.64,-2.6429,-2.6655,-2.6687,-2.6708,-2.6525,-2.6528,-2.653,-2.6655,0,-2.6393,-2.6472,-2.6437,-2.652,-2.6552,-2.6493,-2.6534,-2.6536,-2.6522,-2.6547,-2.6532,-2.6562,-2.6507,-2.6512,-2.6546,-2.6532,-2.6596,-2.6522,-2.656,-2.6562,-2.6562,-2.6729,-2.6763,-2.6881,-2.667,-2.6673,-2.6675,0,-2.6553,-2.6566,-2.6652,-2.6641,-2.6653,-2.669,-2.6705,-2.673,-2.6731,-2.6718,-2.6728,-2.6691,-2.6736,-2.6671,-2.6732,-2.6683,-2.6696,-2.6691,-2.6695,-2.6698,-2.6626,-2.6737,-2.6918,-2.6936,-2.6699,-2.6697,-2.6695,0,-2.6685,-2.6724,-2.678,-2.6785,-2.6773,-2.6801,-2.6797,-2.6794,-2.6808,-2.6821,-2.6829,-2.6848,-2.6858,-2.6873,-2.6843,-2.6798,-2.6908,-2.6841,-2.6899,-2.69,-2.6926,-2.6925,-2.7113,-2.6934,-2.6933,-2.6933,-2.6933,0,-2.6831,-2.6886,-2.6839,-2.6874,-2.6933,-2.6892,-2.6952,-2.6942,-2.6939,-2.6971,-2.6921,-2.6952,-2.6909,-2.6936,-2.6912,-2.6966,-2.6971,-2.6962,-2.6955,-2.6967,-2.6968,-2.6976,-2.6967,-2.6938,-2.6937,-2.6936,-2.6935,0,-2.6989,-2.696,-2.7017,-2.7001,-2.6998,-2.7043,-2.7028,-2.706,-2.7041,-2.7082,-2.7089,-2.7061,-2.7089,-2.7059,-2.7086,-2.707,-2.7143,-2.7124,-2.7143,-2.7138,-2.7198,-2.7193,-2.7398,-2.7423,-2.7228,-2.723,-2.7231,0,-2.7085,-2.7125,-2.7113,-2.713,-2.7129,-2.7157,-2.717,-2.7131,-2.7147,-2.7149,-2.7181,-2.7204,-2.7222,-2.727,-2.7252,-2.7272,-2.7253,-2.7324,-2.7256,-2.7266,-2.7255,-2.7253,-2.7257,-2.7338,-2.734,-2.7342,-2.7344,0,-2.7258,-2.7241,-2.7261,-2.7277,-2.7294,-2.7305,-2.7311,-2.7328,-2.7287,-2.7307,-2.7335,-2.7348,-2.7375,-2.7399,-2.7414,-2.741,-2.7371,-2.7365,-2.7379,-2.7393,-2.7402,-2.7398,-2.7181,-2.7361,-2.7359,-2.7358,-2.7357,-2.7356,-2.7388,-2.7421,-2.7416,-2.7441,-2.7441,-2.7448,-2.7476,-2.746,-2.7483,-2.7501,-2.7475,-2.751,-2.7508,-2.7523,-2.7524,-2.7551,-2.7521,-2.7542,-2.7548,-2.7554,-2.7563,-2.7397,-2.7553,-2.7553,-2.7552,-2.7552,-2.7551,0,-2.7558,-2.7552,-2.7574,-2.7585,-2.7604,-2.7563,-2.7568,-2.7587,-2.7617,-2.7619,-2.7636,-2.7668,-2.7691,-2.7674,-2.7693,-2.7717,-2.77,-2.7724,-2.7722,-2.7722,-2.7589,-2.7574,-2.7738,-2.7738,-2.7738,-2.7738,-2.7738,-2.7738,-2.7649,-2.7702,-2.7685,-2.7737,-2.773,-2.7763,-2.7769,-2.7775,-2.7776,-2.7813,-2.7831,-2.7819,-2.7813,-2.7831,-2.7851,-2.7845,-2.7855,-2.7886,-2.7874,-2.775,-2.7732,-2.7714,-2.77,-2.7888,-2.7888,-2.8005,-2.8006,-2.8007]},{"header":{"parameterUnit":"m.s-1","parameterCategory":1,"la1":30.2991,"la2":30.254,"lo1":-89.0895,"lo2":-89.0444,"dy":0.0017,"dx":0.0017,"nx":28,"ny":28,"refTime":"2024-11-29T03:00:00:Z","depth":0,"parameterNumber":3,"parameterNumberName":"V-component_of_WINDS"},"data":[0,0,0,0,0,0,0,0,0,0,0,0,0,0,0,0,0,0,0,0,0,0,0,0,0,0,0,0,0,0,0,0,0,0,0,0,0,0,0,0,0,0,0,0,0,0,0,0,0,0,0,0,0,0,0,0,0,0,-0.7938,-0.7939,0,-0.8061,-0.8063,-0.8064,-0.8118,-0.8117,-0.8117,-0.8117,-0.8245,-0.8249,-0.8252,0,0,0,0,0,0,0,0,0,0,0,0,0,-0.7748,-0.7751,-0.7938,-0.7939,-0.7941,-0.8061,-0.8063,-0.8064,-0.8118,-0.8117,-0.8117,-0.8117,-0.8244,-0.8248,-0.8253,0,0,0,0,0,0,0,0,0,0,0,0,0,-0.7847,-0.7753,-0.7937,-0.7982,-0.7987,-0.8061,-0.8063,-0.8065,-0.8118,-0.8117,-0.8117,-0.8117,-0.8243,-0.8248,-0.8253,-0.8293,0,0,-0.827,-0.8272,0,0,0,0,0,0,0,0,-0.7841,-0.7854,-0.7974,-0.7979,-0.7985,-0.8074,-0.8043,-0.8141,-0.8118,-0.8068,-0.8117,-0.8117,-0.8189,-0.8198,-0.8222,-0.8299,-0.8304,-0.827,-0.8274,-0.8276,-0.8277,0,0,0,0,0,0,0,-0.7834,-0.7849,-0.7987,-0.7975,-0.7982,-0.7996,-0.8009,-0.8062,-0.8129,-0.8072,-0.8077,-0.809,-0.8192,-0.8217,-0.8226,-0.8306,-0.827,-0.8275,-0.8278,-0.828,-0.842,-0.842,0,0,0,0,0,0,-0.782,-0.7843,-0.7983,-0.799,-0.7911,-0.7999,-0.8015,-0.8046,-0.8128,-0.814,-0.8091,-0.8092,-0.8208,-0.8219,-0.823,-0.8282,-0.8276,-0.8281,-0.8284,-0.842,-0.842,-0.8421,0,0,0,0,0,0,-0.7816,-0.7832,-0.7978,-0.7918,-0.7937,-0.8003,-0.8037,-0.8048,-0.8074,-0.8142,-0.8154,-0.8104,-0.8208,-0.8223,-0.8277,-0.8287,-0.8283,-0.8288,-0.8419,-0.842,-0.842,-0.8384,0,0,0,0,0,0,-0.781,-0.783,-0.7846,-0.7918,-0.794,-0.8021,-0.8038,-0.8051,-0.8083,-0.8086,-0.8158,-0.817,-0.8209,-0.8268,-0.8282,-0.8294,-0.8293,-0.8418,-0.8419,-0.842,-0.8385,-0.8383,-0.8382,0,0,0,0,0,-0.7803,-0.7831,-0.7846,-0.7863,-0.7961,-0.8022,-0.8035,-0.8079,-0.8083,-0.8099,-0.8143,-0.8167,-0.8283,-0.8273,-0.8289,-0.8303,-0.8418,-0.8419,-0.842,-0.8385,-0.8384,-0.8382,0,0,0,0,0,0,-0.776,-0.7842,-0.7859,-0.7912,-0.7959,-0.8031,-0.8053,-0.8076,-0.8125,-0.8126,-0.818,-0.8195,-0.8244,-0.8279,-0.8267,-0.8345,-0.8353,-0.8357,-0.8321,-0.832,-0.8319,-0.8309,-0.8297,0,0,0,0,0,-0.7757,-0.7799,-0.7868,-0.7907,-0.793,-0.7987,-0.8015,-0.8045,-0.8097,-0.8118,-0.8165,-0.8215,-0.8263,-0.8293,-0.8341,-0.839,-0.8406,-0.8407,-0.8406,-0.8404,-0.8408,-0.8435,-0.8437,-0.8424,-0.8424,-0.8424,0,0,-0.775,-0.78,-0.7823,-0.79,-0.794,-0.7983,-0.8004,-0.8048,-0.808,-0.8125,-0.8178,-0.8214,-0.8273,-0.8324,-0.8349,-0.8355,-0.8415,-0.8406,-0.8404,-0.8408,-0.8437,-0.8438,-0.8439,-0.8425,-0.8425,-0.8424,0,0,-0.776,-0.7802,-0.7838,-0.7878,-0.7939,-0.7976,-0.7985,-0.8053,-0.8078,-0.8132,-0.8166,-0.8205,-0.8286,-0.8326,-0.8358,-0.838,-0.8404,-0.8394,-0.8389,-0.8415,-0.8416,-0.8417,-0.8425,-0.8427,-0.8397,-0.8397,-0.8397,0,-0.7744,-0.7809,-0.7855,-0.7897,-0.7929,-0.797,-0.8007,-0.8044,-0.8117,-0.8139,-0.8144,-0.8245,-0.8288,-0.8349,-0.8354,-0.8378,-0.8389,-0.8387,-0.8412,-0.8414,-0.8415,-0.8424,-0.8426,-0.8395,-0.8396,-0.8396,-0.8396,0,-0.7787,-0.7831,-0.7854,-0.7922,-0.7957,-0.7997,-0.8048,-0.8078,-0.8104,-0.8141,-0.8195,-0.8247,-0.8305,-0.8322,-0.8349,-0.8386,-0.8388,-0.8402,-0.841,-0.8414,-0.8423,-0.8426,-0.8393,-0.8394,-0.8394,-0.8395,0,0,-0.7774,-0.7866,-0.7873,-0.7904,-0.7973,-0.8009,-0.805,-0.8106,-0.813,-0.8179,-0.8215,-0.8281,-0.8294,-0.8329,-0.8361,-0.8384,-0.8398,-0.8395,-0.8397,-0.8394,-0.8442,-0.8431,-0.8434,-0.8414,-0.8414,-0.8415,-0.8437,0,-0.7793,-0.7868,-0.7909,-0.7967,-0.8008,-0.8047,-0.8082,-0.8128,-0.8163,-0.8204,-0.8243,-0.8289,-0.8303,-0.8324,-0.8348,-0.8391,-0.8408,-0.839,-0.8448,-0.8449,-0.8432,-0.8439,-0.8428,-0.8446,-0.8441,-0.8441,-0.8442,0,-0.7826,-0.7872,-0.7934,-0.7997,-0.8016,-0.8047,-0.8101,-0.8139,-0.8192,-0.8216,-0.8254,-0.8285,-0.8329,-0.8334,-0.8396,-0.8382,-0.8409,-0.8433,-0.8435,-0.8442,-0.8446,-0.8447,-0.8453,-0.8456,-0.8448,-0.8447,-0.8447,0,-0.781,-0.7888,-0.7935,-0.796,-0.8035,-0.8056,-0.8088,-0.8141,-0.8171,-0.8219,-0.8239,-0.8291,-0.832,-0.836,-0.8404,-0.8403,-0.8461,-0.847,-0.8483,-0.8482,-0.8494,-0.8493,-0.8505,-0.851,-0.851,-0.851,-0.851,0,-0.7827,-0.7863,-0.7929,-0.7957,-0.7999,-0.8045,-0.8085,-0.812,-0.8166,-0.8203,-0.8239,-0.8272,-0.8328,-0.8368,-0.8403,-0.8449,-0.8462,-0.8483,-0.8491,-0.848,-0.8477,-0.8498,-0.8498,-0.8511,-0.8511,-0.851,-0.851,0,-0.7817,-0.7862,-0.7916,-0.7981,-0.7999,-0.8026,-0.8082,-0.8112,-0.8148,-0.8193,-0.8207,-0.8264,-0.8313,-0.836,-0.8426,-0.845,-0.8495,-0.8507,-0.8477,-0.8482,-0.8493,-0.8491,-0.8519,-0.8525,-0.8525,-0.8525,-0.8525,0,-0.7825,-0.7854,-0.7922,-0.7948,-0.7979,-0.8021,-0.8052,-0.8099,-0.813,-0.8191,-0.8213,-0.8265,-0.8308,-0.8385,-0.8433,-0.8483,-0.8497,-0.8503,-0.8505,-0.8491,-0.8497,-0.8495,-0.8498,-0.8502,-0.8502,-0.8501,-0.8501,0,-0.7834,-0.7855,-0.7898,-0.7949,-0.7984,-0.8027,-0.807,-0.809,-0.8145,-0.8178,-0.8228,-0.8262,-0.8328,-0.8379,-0.8435,-0.8469,-0.8494,-0.85,-0.8506,-0.8494,-0.8476,-0.8486,-0.8474,-0.85,-0.85,-0.85,-0.85,-0.85,-0.7834,-0.7861,-0.7912,-0.7959,-0.7996,-0.8035,-0.8066,-0.8105,-0.8147,-0.8205,-0.823,-0.828,-0.8331,-0.8409,-0.8442,-0.8482,-0.8488,-0.8497,-0.8499,-0.85,-0.8497,-0.8469,-0.8492,-0.8492,-0.8493,-0.8493,-0.8493,0,-0.7845,-0.788,-0.7922,-0.7981,-0.8017,-0.8037,-0.8086,-0.8115,-0.8158,-0.8204,-0.8245,-0.8303,-0.8352,-0.8402,-0.8454,-0.8477,-0.849,-0.8489,-0.8488,-0.8495,-0.8489,-0.8479,-0.8477,-0.8477,-0.8477,-0.8477,-0.8477,-0.8477,-0.7855,-0.7901,-0.7927,-0.7992,-0.8026,-0.8075,-0.8101,-0.8138,-0.8174,-0.8236,-0.8276,-0.8309,-0.8356,-0.8412,-0.8457,-0.8471,-0.8489,-0.8484,-0.8501,-0.8495,-0.8496,-0.8497,-0.8487,-0.8488,-0.8488,-0.8504,-0.8504,-0.8504]}]]